Regional Weather Roundup
Issued by NWS

Home | Current Version | Previous Version | Text Only | Print | Product List | Glossary On
Versions: 1 2 3 4 5 6 7 8 9 10 11 12 13 14 15 16 17 18 19 20 21 22 23 24 25 26 27 28 29 30 31 32 33 34 35 36 37 38 39 40 41 42 43 44 45 46 47 48 49 50
000
ASUS46 KSTO 290209
RWRCA

NORTHERN AND CENTRAL CA REGIONAL WEATHER ROUNDUP
NATIONAL WEATHER SERVICE SACRAMENTO CA
700 PM PDT SUN AUG 28 2016

NOTE: FAIR INDICATES FEW OR NO CLOUDS BELOW 12,000 FEET WITH NO
SIGNIFICANT WEATHER AND/OR OBSTRUCTIONS TO VISIBILITY.

CAZ001-003-290300-
NORTHWEST AREA

CITY           SKY/WX    TMP DP  RH WIND       PRES   REMARKS
CRESCENT CITY  PTCLDY    56  50  80 SW3       30.12S
ARCATA         NOT AVBL
SHELTER COVE   NOT AVBL
UKIAH          CLEAR     80  56  43 E6        29.99R
$$

CAZ006-505>513-290300-
BAY AREA

CITY           SKY/WX    TMP DP  RH WIND       PRES   REMARKS
SANTA ROSA     CLEAR     69  53  56 S10       30.02S
SAN RAFAEL     N/A       MM  MM  MM MISG
NAPA           CLEAR     70  56  61 W5        30.01S
CONCORD        CLEAR     76  51  41 W12       30.00R
OAKLAND CITY   N/A       70  MM  MM MISG
OAKLAND        PTCLDY    67  55  65 W14       30.04F
SAN FRAN CITY  N/A       62  MM  72 MISG
SAN FRAN ARPT  PTCLDY    64  53  67 W16       30.04F
LIVERMORE      CLEAR     72  52  49 W15       30.01R
HAYWARD        CLEAR     66  52  60 NW13      30.04F
REDWOOD CITY   N/A       MM  MM  MM MISG
MOFFETT ARPT   CLEAR     67  56  67 N14G21    30.04S
SAN JOSE ARPT  PTCLDY    69  55  60 W14       30.03S
$$
CAZ034-037-514>518-290300-
CENTRAL COAST

CITY           SKY/WX    TMP DP  RH WIND       PRES   REMARKS
WATSONVILLE    CLEAR     63  56  78 SW3       30.06S
SALINAS        CLEAR     64  53  67 W10       30.05S
MONTEREY       CLEAR     62  54  74 W7        30.07S
PT PIEDRAS BLS NOT AVBL
SAN LUIS OBISP CLEAR     66  55  67 NW16      30.01S
SANTA MARIA    CLEAR     62  55  77 NW9       30.03S
$$
CAZ015-016-290300-
NORTHERN SACRAMENTO VALLEY

CITY           SKY/WX    TMP DP  RH WIND       PRES   REMARKS
REDDING        CLEAR     91  33  12 S9        29.94F
RED BLUFF      CLEAR     89  40  17 S9        29.95F
OROVILLE       CLEAR     88  48  25 S7        29.97S
$$
CAZ016>018-290300-
SOUTHERN SACRAMENTO VALLEY

CITY           SKY/WX    TMP DP  RH WIND       PRES   REMARKS
AUBURN         CLEAR     82  46  28 W5        30.05S
BEALE AFB      CLEAR     86  53  31 S6        29.94F
LINCOLN        FAIR      86  41  20 CALM      29.96S
MARYSVILLE     CLEAR     87  53  31 SE8       29.95F
SAC INTL ARPT  CLEAR     85  47  26 S12       29.95S
MATHER AIRPORT CLEAR     88  48  25 SW9       29.96
DOWNTOWN SAC   N/A       89  MM  MM MISG
SAC EXEC ARPT  CLEAR     83  50  31 SW9       29.97S
VACAVILLE      CLEAR     82  50  32 S7        29.97F
TRAVIS AFB     CLEAR     75  53  46 SW20      29.95S
$$
CAZ019>021-290300-
SAN JOAQUIN VALLEY

CITY           SKY/WX    TMP DP  RH WIND       PRES   REMARKS
STOCKTON       CLEAR     86  55  34 W14       29.96S
MODESTO        CLEAR     88  54  31 NW8       29.95S
MERCED         CLEAR     85  58  39 NW8       29.95S
LEMOORE        CLEAR     88  54  31 N9        29.95S
FRESNO         CLEAR     89  52  28 NW9       29.95S
HANFORD        CLEAR     89  53  29 NW10      29.94F
PORTERVILLE    CLEAR     89  58  34 NW7       29.95S
BAKERSFIELD    CLEAR     91  53  27 NW9       29.94S
$$
CAZ011-012-071-290300-
NORTHERN MOUNTAINS

CITY           SKY/WX    TMP DP  RH WIND       PRES   REMARKS
YREKA          CLEAR     87  26  11 S10       30.01S
MOUNT SHASTA   CLEAR     77  32  19 CALM      30.12S
ALTURAS        CLEAR     81  26  13 W16       30.14R
$$
CAZ011-012-071-290300-
SIERRA NEVADA MTNS

CITY           SKY/WX    TMP DP  RH WIND       PRES   REMARKS
BLUE CANYON    CLEAR     71  36  27 VRB3      30.28S
TRUCKEE        CLEAR     72  30  21 W10       30.29S
TAHOE VLY ARPT CLEAR     71  31  22 SW5       30.31R
MAMMOTH LAKES  FAIR      75  23  14 SW15      30.33R
$$



USA.gov is the U.S. government's official web portal to all federal, state and local government web resources and services.